DW3611 Weather Reports


Display with metric or nautical units.
time (UTC)temp
F
wind
direction
speed
MPH
gust
MPH
rain 1hr
in
rain 24hr
in
rain mn
in
humidity
%
barometer
mb
20260831163518 90 323 1.0 4.0 0.00 0.00 0.00 65 1018.0
20260831163036 91 77 1.0 4.0 0.00 0.00 0.00 64 1018.0
20260831162518 89 105 2.0 4.0 0.00 0.00 0.00 67 1018.1
20260831162003 89 38 1.0 4.0 0.00 0.00 0.00 67 1018.1
20260831161510 88 171 1.0 4.0 0.00 0.00 0.00 67 1018.1
20260831161020 88 52 1.0 5.0 0.00 0.00 0.00 66 1018.2
20260831160505 89 155 1.0 5.0 0.00 0.00 0.00 66 1018.3
20260831160026 89 93 1.0 5.0 0.00 0.00 0.00 67 1018.2
20260831155513 89 5 1.0 5.0 0.00 0.00 0.00 66 1018.2
20260831155023 89 72 1.0 4.0 0.00 0.00 0.00 65 1018.1
20260831154601 89 189 1.0 4.0 0.00 0.00 0.00 66 1018.2
20260831154023 88 121 0.0 3.0 0.00 0.00 0.00 66 1018.2
20260831153516 88 227 1.0 3.0 0.00 0.00 0.00 67 1018.1
20260831153042 87 32 0.0 3.0 0.00 0.00 0.00 70 1018.1
20260831152519 87 87 0.0 4.0 0.00 0.00 0.00 70 1018.1
20260831152021 87 62 2.0 4.0 0.00 0.00 0.00 70 1018.1
20260831151534 87 97 0.0 3.0 0.00 0.00 0.00 72 1018.1
20260831151014 86 98 0.0 3.0 0.00 0.00 0.00 72 1018.1
20260831150502 86 46 0.0 3.0 0.00 0.00 0.00 74 1018.1
20260831150034 85 82 1.0 5.0 0.00 0.00 0.00 75 1018.1
20260831145509 85 352 0.0 5.0 0.00 0.00 0.00 76 1018.2
20260831145006 84 23 1.0 3.0 0.00 0.00 0.00 78 1018.1
20260831144517 83 176 0.0 3.0 0.00 0.00 0.00 80 1018.1
20260831144019 83 55 1.0 4.0 0.00 0.00 0.00 87 1018.1
20260831143515 80 229 0.0 4.0 0.00 0.00 0.00 87 1018.1
20260831143017 79 66 1.0 3.0 0.00 0.00 0.00 89 1018.1
20260831142511 79 47 0.0 0.0 0.00 0.00 0.00 90 1018.2
20260831142014 78 119 0.0 0.0 0.00 0.00 0.00 91 1018.1
20260831141523 78 115 0.0 0.0 0.00 0.00 0.00 91 1018.0
20260831141019 77 54 0.0 0.0 0.00 0.00 0.00 91 1018.0
20260831140518 77 67 0.0 0.0 0.00 0.00 0.00 91 1018.1
20260831140033 77 67 0.0 0.0 0.00 0.00 0.00 91 1018.2
20260831135523 76 177 0.0 0.0 0.00 0.00 0.00 92 1018.1
20260831135019 76 39 0.0 0.0 0.00 0.00 0.00 92 1017.9
20260831134533 76 182 0.0 0.0 0.00 0.00 0.00 91 1017.9
20260831134017 75 182 0.0 0.0 0.00 0.00 0.00 91 1017.8
20260831133515 75 181 0.0 0.0 0.00 0.00 0.00 91 1017.9
20260831133012 74 181 0.0 0.0 0.00 0.00 0.00 91 1017.8
20260831132510 74 182 0.0 0.0 0.00 0.00 0.00 91 1017.8
20260831132009 74 360 0.0 0.0 0.00 0.00 0.00 90 1017.7
20260831131518 73 360 0.0 0.0 0.00 0.00 0.00 90 1017.6
20260831131014 73 210 0.0 0.0 0.00 0.00 0.00 90 1017.5
20260831130512 73 360 0.0 0.0 0.00 0.00 0.00 90 1017.4
20260831130040 73 360 0.0 0.0 0.00 0.00 0.00 90 1017.4
20260831125515 73 360 0.0 0.0 0.00 0.00 0.00 90 1017.3
20260831125015 73 227 0.0 0.0 0.00 0.00 0.00 90 1017.3
20260831124530 73 188 0.0 0.0 0.00 0.00 0.00 90 1017.3
20260831124015 73 187 0.0 1.0 0.00 0.00 0.00 90 1017.3
20260831123516 73 186 0.0 1.0 0.00 0.00 0.00 89 1017.2
20260831123032 73 186 0.0 1.0 0.00 0.00 0.00 90 1017.1
20260831122506 73 186 0.0 0.0 0.00 0.00 0.00 89 1017.1
20260831122008 73 186 0.0 0.0 0.00 0.00 0.00 89 1017.0
20260831121531 73 186 0.0 0.0 0.00 0.00 0.00 89 1017.0
20260831121013 73 186 0.0 1.0 0.00 0.00 0.00 89 1016.9
20260831120518 73 186 0.0 2.0 0.00 0.00 0.00 89 1016.7
20260831120037 73 186 0.0 2.0 0.00 0.00 0.00 89 1016.7
20260831115558 73 186 0.0 0.0 0.00 0.00 0.00 89 1016.7
20260831115017 73 186 0.0 0.0 0.00 0.00 0.00 89 1016.6
20260831114537 73 186 0.0 0.0 0.00 0.00 0.00 89 1016.6
20260831114024 73 186 0.0 0.0 0.00 0.00 0.00 88 1016.5
20260831113517 73 186 0.0 0.0 0.00 0.00 0.00 88 1016.5
20260831113031 73 186 0.0 0.0 0.00 0.00 0.00 88 1016.5
20260831112518 73 186 0.0 0.0 0.00 0.00 0.00 87 1016.4
20260831112016 73 186 0.0 0.0 0.00 0.00 0.00 87 1016.4
20260831111513 73 186 0.0 0.0 0.00 0.00 0.00 87 1016.4
20260831111010 74 186 0.0 0.0 0.00 0.00 0.00 87 1016.3
20260831110512 74 186 0.0 0.0 0.00 0.00 0.00 87 1016.3
20260831110041 74 187 0.0 0.0 0.00 0.00 0.00 87 1016.3
20260831105515 74 186 0.0 0.0 0.00 0.00 0.00 87 1016.3
20260831105016 74 186 0.0 0.0 0.00 0.00 0.00 87 1016.1
20260831104530 74 186 0.0 0.0 0.00 0.00 0.00 86 1016.1
20260831104013 74 187 0.0 0.0 0.00 0.00 0.00 86 1016.0
20260831103515 74 187 0.0 0.0 0.00 0.00 0.00 86 1016.0
20260831103029 74 187 0.0 0.0 0.00 0.00 0.00 86 1016.1
20260831102517 74 188 0.0 0.0 0.00 0.00 0.00 85 1016.1
20260831102018 74 188 0.0 0.0 0.00 0.00 0.00 85 1016.0
20260831101539 75 188 0.0 0.0 0.00 0.00 0.00 85 1016.2
20260831101019 75 188 0.0 0.0 0.00 0.00 0.00 84 1016.1
20260831100517 75 188 0.0 0.0 0.00 0.00 0.00 84 1016.2
20260831100031 75 191 0.0 0.0 0.00 0.00 0.00 84 1016.2
20260831095516 75 188 0.0 0.0 0.00 0.00 0.00 84 1016.2
20260831095011 75 190 0.0 0.0 0.00 0.00 0.00 84 1016.1
20260831094526 75 193 0.0 0.0 0.00 0.00 0.00 84 1016.2
20260831094018 75 197 0.0 0.0 0.00 0.00 0.00 84 1016.2
20260831093514 76 360 0.0 0.0 0.00 0.00 0.00 84 1016.1
20260831093028 76 360 0.0 0.0 0.00 0.00 0.00 84 1016.1
20260831092516 76 360 0.0 0.0 0.00 0.00 0.00 84 1016.0
20260831092022 76 194 0.0 0.0 0.00 0.00 0.00 84 1016.0
20260831091507 76 182 0.0 0.0 0.00 0.00 0.00 84 1016.1
20260831091007 76 182 0.0 0.0 0.00 0.00 0.00 84 1015.9
20260831090507 77 182 0.0 0.0 0.00 0.00 0.00 84 1015.9
20260831090015 77 360 0.0 0.0 0.00 0.00 0.00 84 1015.8
20260831085509 77 360 0.0 0.0 0.00 0.00 0.00 84 1015.9
20260831085009 77 181 0.0 0.0 0.00 0.00 0.00 84 1016.0
20260831084525 77 181 0.0 0.0 0.00 0.00 0.00 84 1016.0
20260831084007 77 181 0.0 1.0 0.00 0.00 0.00 84 1016.0
20260831083507 77 181 0.0 1.0 0.00 0.00 0.00 84 1016.0
20260831083019 77 181 0.0 2.0 0.00 0.00 0.00 84 1016.1
20260831082508 77 181 0.0 2.0 0.00 0.00 0.00 84 1016.1
20260831082014 78 181 0.0 2.0 0.00 0.00 0.00 83 1016.1
20260831081517 78 360 0.0 1.0 0.00 0.00 0.00 83 1016.1
20260831081038 78 360 0.0 2.0 0.00 0.00 0.00 83 1016.1
20260831080517 78 360 0.0 3.0 0.00 0.00 0.00 83 1016.2
20260831080012 78 360 0.0 3.0 0.00 0.00 0.00 83 1016.1
20260831075508 78 360 0.0 2.0 0.00 0.00 0.00 82 1016.2
20260831075013 78 360 0.0 2.0 0.00 0.00 0.00 82 1016.2
20260831074534 78 360 0.0 2.0 0.00 0.00 0.00 82 1016.2
20260831074012 78 360 0.0 2.0 0.00 0.00 0.00 82 1016.2
20260831073510 78 360 0.0 2.0 0.00 0.00 0.00 82 1016.2
20260831073038 78 360 0.0 0.0 0.00 0.00 0.00 81 1016.3
20260831072510 78 360 0.0 2.0 0.00 0.00 0.00 81 1016.3
20260831072011 79 360 0.0 2.0 0.00 0.00 0.00 81 1016.3
20260831071514 79 360 0.0 2.0 0.00 0.00 0.00 80 1016.4
20260831071008 79 360 0.0 2.0 0.00 0.00 0.00 80 1016.3
20260831070510 79 360 0.0 2.0 0.00 0.00 0.00 80 1016.4
20260831070031 79 39 0.0 2.0 0.00 0.00 0.00 80 1016.4
20260831065519 79 360 0.0 2.0 0.00 0.00 0.00 80 1016.3
20260831065008 79 40 0.0 2.0 0.00 0.00 0.00 80 1016.3
20260831064530 79 31 0.0 4.0 0.00 0.00 0.00 79 1016.3
20260831064014 79 44 0.0 5.0 0.00 0.00 0.00 79 1016.4
20260831063512 79 360 0.0 5.0 0.00 0.00 0.00 79 1016.5
20260831063021 79 360 1.0 4.0 0.00 0.00 0.00 78 1016.4
20260831062512 80 360 0.0 3.0 0.00 0.00 0.00 78 1016.5
20260831062016 80 360 1.0 3.0 0.00 0.00 0.00 78 1016.6
20260831061530 80 360 0.0 3.0 0.00 0.00 0.00 78 1016.4
20260831061018 80 360 0.0 3.0 0.00 0.00 0.00 78 1016.4
20260831060515 80 360 0.0 2.0 0.00 0.00 0.00 77 1016.4
20260831060026 80 360 0.0 2.0 0.00 0.00 0.00 77 1016.3
20260831055513 80 360 0.0 3.0 0.00 0.00 0.00 76 1016.4
20260831055011 80 360 0.0 3.0 0.00 0.00 0.00 76 1016.4
20260831054527 80 360 0.0 1.0 0.00 0.00 0.00 75 1016.4
20260831054013 80 360 0.0 2.0 0.00 0.00 0.00 75 1016.4
20260831053509 81 360 0.0 2.0 0.00 0.00 0.00 75 1016.3
20260831053022 81 360 0.0 1.0 0.00 0.00 0.00 75 1016.3
20260831052512 81 360 0.0 2.0 0.00 0.00 0.00 74 1016.3
20260831052016 81 360 0.0 2.0 0.00 0.00 0.00 74 1016.3
20260831051524 81 39 0.0 1.0 0.00 0.00 0.00 74 1016.3
20260831051011 81 42 0.0 1.0 0.00 0.00 0.00 74 1016.2
20260831050520 81 55 0.0 2.0 0.00 0.00 0.00 73 1016.1
20260831050040 82 360 0.0 3.0 0.00 0.00 0.00 73 1016.1
20260831045516 82 360 0.0 4.0 0.00 0.00 0.00 73 1016.2
20260831045018 82 360 0.0 4.0 0.00 0.00 0.00 73 1016.2
20260831044532 82 360 1.0 4.0 0.00 0.00 0.00 73 1016.1
20260831044020 82 360 1.0 3.0 0.00 0.00 0.00 72 1016.1
20260831043516 82 71 0.0 4.0 0.00 0.00 0.00 72 1016.1
20260831043040 82 360 1.0 4.0 0.00 0.00 0.00 71 1016.0
20260831042514 82 360 1.0 4.0 0.00 0.00 0.00 71 1016.0
20260831042014 83 360 0.0 3.0 0.00 0.00 0.00 71 1016.0
20260831041519 83 360 0.0 4.0 0.00 0.00 0.00 70 1015.9
20260831041014 83 360 2.0 5.0 0.00 0.00 0.00 70 1015.9
20260831040514 83 360 2.0 5.0 0.00 0.00 0.00 70 1015.9
20260831040042 83 83 2.0 5.0 0.00 0.00 0.00 69 1015.8
20260831035516 83 86 1.0 4.0 0.00 0.00 0.00 69 1015.8
20260831035015 84 84 1.0 4.0 0.00 0.00 0.00 68 1015.9
20260831034532 84 147 1.0 4.0 0.00 0.00 0.00 68 1015.7
20260831034015 84 201 2.0 4.0 0.00 0.00 0.00 68 1015.6
20260831033518 84 230 1.0 5.0 0.00 0.00 0.00 67 1015.5
20260831033034 84 169 2.0 5.0 0.00 0.00 0.00 67 1015.5
20260831032516 84 184 2.0 7.0 0.00 0.00 0.00 67 1015.4
20260831032016 84 167 2.0 7.0 0.00 0.00 0.00 66 1015.5
20260831031531 85 114 1.0 5.0 0.00 0.00 0.00 66 1015.4
20260831031014 85 360 1.0 5.0 0.00 0.00 0.00 66 1015.3
20260831030510 85 360 1.0 6.0 0.00 0.00 0.00 65 1015.3
20260831030043 85 101 2.0 6.0 0.00 0.00 0.00 65 1015.3
20260831025515 85 360 1.0 5.0 0.00 0.00 0.00 65 1015.2
20260831025004 85 360 1.0 6.0 0.00 0.00 0.00 64 1015.1
20260831024504 85 360 2.0 7.0 0.00 0.00 0.00 64 1015.1
20260831024003 86 360 2.0 7.0 0.00 0.00 0.00 64 1015.1
20260831023505 86 360 2.0 7.0 0.00 0.00 0.00 63 1015.1
20260831023030 86 161 1.0 7.0 0.00 0.00 0.00 63 1014.8
20260831022519 86 248 2.0 9.0 0.00 0.00 0.00 63 1014.8
20260831022007 86 249 3.0 10.0 0.00 0.00 0.00 62 1014.7
20260831021510 87 117 3.0 10.0 0.00 0.00 0.00 62 1014.7
20260831021008 87 249 2.0 8.0 0.00 0.00 0.00 62 1014.6
20260831020510 87 188 3.0 8.0 0.00 0.00 0.00 62 1014.5
20260831020019 87 198 2.0 6.0 0.00 0.00 0.00 61 1014.4
20260831015511 88 215 2.0 6.0 0.00 0.00 0.00 61 1014.3
20260831015014 88 212 1.0 5.0 0.00 0.00 0.00 60 1014.2
20260831014536 88 240 1.0 6.0 0.00 0.00 0.00 60 1014.2
20260831014015 88 173 2.0 6.0 0.00 0.00 0.00 60 1014.3
20260831013514 88 242 1.0 6.0 0.00 0.00 0.00 59 1014.1
20260831013008 89 257 2.0 5.0 0.00 0.00 0.00 58 1014.1
20260831012516 89 178 0.0 8.0 0.00 0.00 0.00 58 1014.0
20260831012018 89 139 2.0 10.0 0.00 0.00 0.00 57 1014.0
20260831011512 90 221 3.0 10.0 0.00 0.00 0.00 56 1014.0
20260831011015 90 232 3.0 5.0 0.00 0.00 0.00 55 1014.0
20260831010511 91 240 0.0 3.0 0.00 0.00 0.00 54 1013.9
20260831010039 91 202 0.0 1.0 0.00 0.00 0.00 52 1013.7
20260831005541 92 202 0.0 2.0 0.00 0.00 0.00 52 1013.6
20260831005020 92 202 0.0 2.0 0.00 0.00 0.00 52 1013.7
20260831004534 92 202 0.0 1.0 0.00 0.00 0.00 50 1013.7
20260831004015 92 202 0.0 2.0 0.00 0.00 0.00 50 1013.6
20260831003519 92 202 0.0 2.0 0.00 0.00 0.00 49 1013.7
20260831003035 93 202 0.0 3.0 0.00 0.00 0.00 49 1013.7
20260831002514 93 182 0.0 4.0 0.00 0.00 0.00 49 1013.6
20260831002016 92 191 0.0 4.0 0.00 0.00 0.00 49 1013.8
20260831001534 93 221 1.0 4.0 0.00 0.00 0.00 48 1013.8
20260831001007 93 187 0.0 6.0 0.00 0.00 0.00 48 1013.7
20260831000516 93 221 2.0 6.0 0.00 0.00 0.00 47 1013.8
20260831000037 94 205 0.0 5.0 0.00 0.00 0.00 46 1013.8
20260830235507 94 187 2.0 5.0 0.00 0.00 0.00 45 1013.7
20260830235018 94 252 1.0 4.0 0.00 0.00 0.00 44 1013.7
20260830234533 94 103 0.0 1.0 0.00 0.00 0.00 46 1013.7
20260830234013 94 82 0.0 2.0 0.00 0.00 0.00 43 1013.7
20260830233519 95 30 0.0 3.0 0.00 0.00 0.00 43 1013.7
20260830233035 95 165 0.0 3.0 0.00 0.00 0.00 41 1013.7
20260830232516 95 194 0.0 4.0 0.00 0.00 0.00 44 1013.7
20260830232016 95 53 1.0 4.0 0.00 0.00 0.00 42 1013.7
20260830231527 95 327 1.0 4.0 0.00 0.00 0.00 44 1013.8
20260830231017 95 49 0.0 3.0 0.00 0.00 0.00 44 1013.8
20260830230515 95 49 1.0 4.0 0.00 0.00 0.00 43 1013.7
20260830230033 95 193 1.0 4.0 0.00 0.00 0.00 44 1013.7
20260830225520 95 52 1.0 4.0 0.00 0.00 0.00 45 1013.7
20260830225031 95 55 1.0 4.0 0.00 0.00 0.00 44 1013.7
20260830224534 95 83 2.0 4.0 0.00 0.00 0.00 45 1013.8
20260830224010 95 42 2.0 4.0 0.00 0.00 0.00 46 1013.8
20260830223516 95 69 0.0 4.0 0.00 0.00 0.00 46 1013.7
20260830223021 95 26 1.0 5.0 0.00 0.00 0.00 45 1013.7
20260830222518 95 55 1.0 5.0 0.00 0.00 0.00 46 1013.7
20260830222016 95 49 1.0 4.0 0.00 0.00 0.00 44 1013.6
20260830221529 95 191 0.0 2.0 0.00 0.00 0.00 45 1013.7
20260830221021 96 194 0.0 5.0 0.00 0.00 0.00 45 1013.7
20260830220519 97 186 1.0 5.0 0.00 0.00 0.00 41 1013.7
20260830220054 98 147 1.0 5.0 0.00 0.00 0.00 42 1013.7
20260830215520 98 155 1.0 6.0 0.00 0.00 0.00 43 1013.7
20260830215016 97 219 1.0 7.0 0.00 0.00 0.00 41 1013.8
20260830214534 97 167 2.0 7.0 0.00 0.00 0.00 42 1013.8
20260830214017 97 277 2.0 6.0 0.00 0.00 0.00 42 1013.9
20260830213510 97 159 2.0 6.0 0.00 0.00 0.00 42 1013.9
20260830213021 96 194 0.0 3.0 0.00 0.00 0.00 44 1013.9
20260830212513 95 178 1.0 5.0 0.00 0.00 0.00 44 1014.0
20260830212015 94 221 2.0 5.0 0.00 0.00 0.00 46 1014.1
20260830211535 94 195 0.0 2.0 0.00 0.00 0.00 47 1014.2
20260830211016 94 157 0.0 2.0 0.00 0.00 0.00 48 1014.3
20260830210516 94 211 0.0 2.0 0.00 0.00 0.00 48 1014.4
20260830210052 94 264 0.0 3.0 0.00 0.00 0.00 47 1014.4
20260830205523 94 288 0.0 4.0 0.00 0.00 0.00 48 1014.5
20260830205020 94 208 1.0 5.0 0.00 0.00 0.00 47 1014.6
20260830204549 95 259 0.0 5.0 0.00 0.00 0.00 46 1014.7
20260830204020 95 229 1.0 4.0 0.00 0.00 0.00 46 1014.8
20260830203518 95 75 1.0 4.0 0.00 0.00 0.00 45 1014.9
20260830203034 96 139 1.0 5.0 0.00 0.00 0.00 43 1015.0
20260830202516 97 153 1.0 5.0 0.00 0.00 0.00 42 1015.0
20260830202017 96 131 0.0 4.0 0.00 0.00 0.00 42 1015.0
20260830201520 97 5 1.0 8.0 0.00 0.00 0.00 40 1015.0
20260830201019 98 160 0.0 8.0 0.00 0.00 0.00 39 1015.1
20260830200516 98 238 2.0 9.0 0.00 0.00 0.00 41 1015.0
20260830200035 99 165 5.0 9.0 0.00 0.00 0.00 40 1015.1
20260830195503 98 173 0.0 3.0 0.00 0.00 0.00 41 1015.2
20260830195003 97 5 0.0 3.0 0.00 0.00 0.00 44 1015.3
20260830194540 94 54 0.0 3.0 0.00 0.00 0.00 45 1015.4
20260830194005 94 38 1.0 4.0 0.00 0.00 0.00 46 1015.5
20260830193517 94 34 2.0 3.0 0.00 0.00 0.00 44 1015.6
20260830193007 94 59 0.0 0.0 0.00 0.00 0.00 47 1015.7
20260830192515 94 59 0.0 3.0 0.00 0.00 0.00 44 1015.8
20260830192009 94 57 0.0 3.0 0.00 0.00 0.00 43 1015.8
20260830191604 94 44 1.0 6.0 0.00 0.00 0.00 44 1016.0
20260830191002 94 352 0.0 6.0 0.00 0.00 0.00 46 1016.1
20260830190502 94 207 3.0 7.0 0.00 0.00 0.00 46 1016.2
20260830190003 94 186 2.0 7.0 0.00 0.00 0.00 44 1016.2
20260830185519 95 188 1.0 4.0 0.00 0.00 0.00 46 1016.3
20260830185006 97 350 1.0 9.0 0.00 0.00 0.00 44 1016.4
20260830184538 97 177 3.0 9.0 0.00 0.00 0.00 46 1016.3
20260830184018 96 49 2.0 7.0 0.00 0.00 0.00 46 1016.4
20260830183505 96 248 2.0 6.0 0.00 0.00 0.00 47 1016.5
20260830183033 95 210 1.0 8.0 0.00 0.00 0.00 46 1016.6
20260830182524 95 227 1.0 8.0 0.00 0.00 0.00 45 1016.6
20260830182010 95 11 1.0 6.0 0.00 0.00 0.00 49 1016.7
20260830181534 94 224 3.0 6.0 0.00 0.00 0.00 49 1016.8
20260830181010 94 231 0.0 7.0 0.00 0.00 0.00 46 1017.0
20260830180516 97 105 1.0 7.0 0.00 0.00 0.00 46 1017.0
20260830180038 97 199 1.0 6.0 0.00 0.00 0.00 45 1017.0
20260830175503 96 334 1.0 6.0 0.00 0.00 0.00 47 1017.1
20260830175018 95 264 2.0 6.0 0.00 0.00 0.00 49 1017.1
20260830174503 96 30 0.0 11.0 0.00 0.00 0.00 48 1017.2
20260830174018 94 261 3.0 11.0 0.00 0.00 0.00 48 1017.3
20260830173507 95 286 3.0 9.0 0.00 0.00 0.00 48 1017.4
20260830173027 95 75 1.0 6.0 0.00 0.00 0.00 49 1017.4
20260830172519 94 220 2.0 9.0 0.00 0.00 0.00 50 1017.6
20260830172023 93 144 2.0 11.0 0.00 0.00 0.00 50 1017.6
20260830171527 94 115 4.0 11.0 0.00 0.00 0.00 49 1017.6
20260830171018 95 229 3.0 7.0 0.00 0.00 0.00 51 1017.5
20260830170516 95 352 2.0 8.0 0.00 0.00 0.00 53 1017.6
20260830170037 93 342 2.0 8.0 0.00 0.00 0.00 50 1017.7
20260830165513 93 173 2.0 7.0 0.00 0.00 0.00 56 1017.7
20260830165015 94 174 3.0 7.0 0.00 0.00 0.00 53 1017.7
20260830164532 93 103 3.0 7.0 0.00 0.00 0.00 54 1017.8
20260830164023 92 222 2.0 7.0 0.00 0.00 0.00 56 1017.8